Time,TemperatureF,DewpointF,PressureIn,WindDirection,WindDirectionDegrees,WindSpeedMPH,WindSpeedGustMPH,Humidity,HourlyPrecipIn,Conditions,Clouds,dailyrainin,SolarRadiationWatts/m^2,SoftwareType,DateUTC
2013-05-20 00:04:00,55.0,50.3,29.88,SSE,157,0.0,0.0,84,0.00,,,0.00,0,WeatherCatV1.20B467,2013-05-19 23:04:00,
2013-05-20 00:09:00,54.9,50.2,29.88,SSE,157,0.0,0.0,84,0.00,,,0.00,0,WeatherCatV1.20B467,2013-05-19 23:09:00,
2013-05-20 00:14:00,54.8,50.1,29.88,SSE,157,0.0,0.0,84,0.00,,,0.00,0,WeatherCatV1.20B467,2013-05-19 23:14:00,
2013-05-20 00:19:00,54.5,50.1,29.88,SSE,157,0.0,0.0,85,0.00,,,0.00,0,WeatherCatV1.20B467,2013-05-19 23:19:00,
2013-05-20 00:24:00,54.2,49.8,29.88,SSE,157,0.0,1.0,85,0.00,,,0.00,0,WeatherCatV1.20B467,2013-05-19 23:24:00,
2013-05-20 00:29:00,53.9,49.8,29.88,SSE,157,0.0,0.0,86,0.00,,,0.00,0,WeatherCatV1.20B467,2013-05-19 23:29:00,
2013-05-20 00:34:00,53.6,49.5,29.88,NNE,17,0.0,1.0,86,0.00,,,0.00,0,WeatherCatV1.20B467,2013-05-19 23:34:00,
2013-05-20 00:39:00,53.4,49.6,29.88,NNE,12,0.0,0.0,87,0.00,,,0.00,0,WeatherCatV1.20B467,2013-05-19 23:39:00,
2013-05-20 00:44:00,53.2,49.4,29.87,North,9,0.0,1.0,87,0.00,,,0.00,0,WeatherCatV1.20B467,2013-05-19 23:44:00,
2013-05-20 00:49:00,53.1,49.6,29.87,North,9,0.0,0.0,88,0.00,,,0.00,0,WeatherCatV1.20B467,2013-05-19 23:49:00,
2013-05-20 00:54:00,53.1,49.6,29.87,North,9,0.0,0.0,88,0.00,,,0.00,0,WeatherCatV1.20B467,2013-05-19 23:54:00,
2013-05-20 00:59:00,53.0,49.5,29.88,NNE,13,0.0,0.0,88,0.00,,,0.00,0,WeatherCatV1.20B467,2013-05-19 23:59:00,
2013-05-20 01:04:00,53.0,49.8,29.87,NNE,13,0.0,0.0,89,0.00,,,0.00,0,WeatherCatV1.20B467,2013-05-20 00:04:00,
2013-05-20 01:09:00,53.0,49.8,29.87,NNW,336,0.0,3.0,89,0.00,,,0.00,0,WeatherCatV1.20B467,2013-05-20 00:09:00,
2013-05-20 01:14:00,53.0,49.8,29.87,NNW,328,2.0,2.0,89,0.00,,,0.00,0,WeatherCatV1.20B467,2013-05-20 00:14:00,
2013-05-20 01:19:00,53.1,49.6,29.87,NNW,329,0.0,1.0,88,0.00,,,0.00,0,WeatherCatV1.20B467,2013-05-20 00:19:00,
2013-05-20 01:24:00,53.1,49.6,29.86,WNW,303,0.0,2.0,88,0.00,,,0.00,0,WeatherCatV1.20B467,2013-05-20 00:24:00,
2013-05-20 01:29:00,53.1,49.6,29.86,NNW,333,0.0,2.0,88,0.00,,,0.00,0,WeatherCatV1.20B467,2013-05-20 00:29:00,
2013-05-20 01:34:00,53.2,49.7,29.86,NNW,346,0.0,3.0,88,0.00,,,0.00,0,WeatherCatV1.20B467,2013-05-20 00:34:00,
2013-05-20 01:39:00,53.2,49.4,29.87,North,355,0.0,0.0,87,0.00,,,0.00,0,WeatherCatV1.20B467,2013-05-20 00:39:00,
2013-05-20 01:44:00,53.2,49.4,29.87,North,10,0.0,1.0,87,0.00,,,0.00,0,WeatherCatV1.20B467,2013-05-20 00:44:00,
2013-05-20 01:49:00,53.3,49.5,29.87,South,177,0.0,1.0,87,0.00,,,0.00,0,WeatherCatV1.20B467,2013-05-20 00:49:00,
2013-05-20 01:54:00,53.3,49.5,29.86,NW,304,0.0,1.0,87,0.00,,,0.00,0,WeatherCatV1.20B467,2013-05-20 00:54:00,
2013-05-20 01:59:00,53.3,49.5,29.86,NW,313,1.0,2.0,87,0.00,,,0.00,0,WeatherCatV1.20B467,2013-05-20 00:59:00,
2013-05-20 02:04:00,53.2,49.7,29.86,North,355,0.0,2.0,88,0.00,,,0.00,0,WeatherCatV1.20B467,2013-05-20 01:04:00,
2013-05-20 02:09:00,53.0,49.5,29.86,NW,319,2.0,3.0,88,0.00,,,0.01,0,WeatherCatV1.20B467,2013-05-20 01:09:00,
2013-05-20 02:14:00,52.7,49.5,29.86,NW,308,0.0,0.0,89,0.00,,,0.01,0,WeatherCatV1.20B467,2013-05-20 01:14:00,
2013-05-20 02:19:00,52.4,49.3,29.86,NNW,343,0.0,2.0,89,0.00,,,0.01,0,WeatherCatV1.20B467,2013-05-20 01:19:00,
2013-05-20 02:24:00,52.3,49.5,29.86,NNW,343,0.0,2.0,90,0.00,,,0.01,0,WeatherCatV1.20B467,2013-05-20 01:24:00,
2013-05-20 02:29:00,52.2,49.4,29.86,NW,315,0.0,1.0,90,0.00,,,0.01,0,WeatherCatV1.20B467,2013-05-20 01:29:00,
2013-05-20 02:34:00,52.2,49.7,29.86,NW,317,0.0,2.0,91,0.00,,,0.01,0,WeatherCatV1.20B467,2013-05-20 01:34:00,
2013-05-20 02:39:00,52.0,49.5,29.85,NW,313,0.0,3.0,91,0.00,,,0.01,0,WeatherCatV1.20B467,2013-05-20 01:39:00,
2013-05-20 02:44:00,51.9,49.4,29.85,NW,324,0.0,1.0,91,0.00,,,0.01,0,WeatherCatV1.20B467,2013-05-20 01:44:00,
2013-05-20 02:49:00,51.9,49.4,29.85,NW,324,0.0,0.0,91,0.00,,,0.01,0,WeatherCatV1.20B467,2013-05-20 01:49:00,
2013-05-20 02:54:00,51.8,49.3,29.85,NNW,334,2.0,4.0,91,0.00,,,0.01,0,WeatherCatV1.20B467,2013-05-20 01:54:00,
2013-05-20 02:59:00,51.8,49.3,29.85,NW,314,1.0,3.0,91,0.00,,,0.01,0,WeatherCatV1.20B467,2013-05-20 01:59:00,
2013-05-20 03:04:00,51.8,49.3,29.85,NNW,348,0.0,4.0,91,0.00,,,0.01,0,WeatherCatV1.20B467,2013-05-20 02:04:00,
2013-05-20 03:09:00,51.7,49.2,29.85,ENE,57,1.0,4.0,91,0.00,,,0.01,0,WeatherCatV1.20B467,2013-05-20 02:09:00,
2013-05-20 03:14:00,51.7,49.2,29.84,NW,306,1.0,4.0,91,0.00,,,0.01,0,WeatherCatV1.20B467,2013-05-20 02:14:00,
2013-05-20 03:19:00,51.6,49.1,29.84,NNE,24,3.0,3.0,91,0.00,,,0.01,0,WeatherCatV1.20B467,2013-05-20 02:19:00,
2013-05-20 03:24:00,51.6,49.1,29.84,NNW,329,2.0,2.0,91,0.00,,,0.01,0,WeatherCatV1.20B467,2013-05-20 02:24:00,
2013-05-20 03:29:00,51.6,49.1,29.84,SW,221,2.0,2.0,91,0.00,,,0.01,0,WeatherCatV1.20B467,2013-05-20 02:29:00,
2013-05-20 03:34:00,51.6,49.1,29.83,NW,319,0.0,6.0,91,0.00,,,0.01,0,WeatherCatV1.20B467,2013-05-20 02:34:00,
2013-05-20 03:39:00,51.6,49.1,29.83,NW,310,0.0,4.0,91,0.00,,,0.01,0,WeatherCatV1.20B467,2013-05-20 02:39:00,
2013-05-20 03:44:00,51.6,49.1,29.83,South,169,2.0,3.0,91,0.00,,,0.01,0,WeatherCatV1.20B467,2013-05-20 02:44:00,
2013-05-20 03:49:00,51.6,49.1,29.84,North,5,4.0,4.0,91,0.00,,,0.01,0,WeatherCatV1.20B467,2013-05-20 02:49:00,
2013-05-20 03:54:00,51.6,49.4,29.83,NNW,340,0.0,3.0,92,0.00,,,0.01,0,WeatherCatV1.20B467,2013-05-20 02:54:00,
2013-05-20 03:59:00,51.6,49.4,29.83,NW,308,0.0,2.0,92,0.00,,,0.01,0,WeatherCatV1.20B467,2013-05-20 02:59:00,
2013-05-20 04:04:00,51.6,49.4,29.83,NNW,330,0.0,1.0,92,0.00,,,0.01,0,WeatherCatV1.20B467,2013-05-20 03:04:00,
2013-05-20 04:09:00,51.6,49.4,29.84,NW,317,0.0,2.0,92,0.00,,,0.01,0,WeatherCatV1.20B467,2013-05-20 03:09:00,
2013-05-20 04:14:00,51.6,49.4,29.83,North,355,0.0,1.0,92,0.00,,,0.01,0,WeatherCatV1.20B467,2013-05-20 03:14:00,
2013-05-20 04:19:00,51.6,49.4,29.83,WNW,298,1.0,2.0,92,0.00,,,0.01,0,WeatherCatV1.20B467,2013-05-20 03:19:00,
2013-05-20 04:24:00,51.7,49.5,29.83,WNW,286,1.0,4.0,92,0.00,,,0.01,0,WeatherCatV1.20B467,2013-05-20 03:24:00,
2013-05-20 04:29:00,51.7,49.5,29.83,NW,311,0.0,2.0,92,0.00,,,0.01,0,WeatherCatV1.20B467,2013-05-20 03:29:00,
2013-05-20 04:34:00,51.7,49.5,29.83,NNW,344,0.0,0.0,92,0.00,,,0.01,0,WeatherCatV1.20B467,2013-05-20 03:34:00,
2013-05-20 04:39:00,51.8,49.8,29.83,NNW,329,0.0,1.0,93,0.00,,,0.01,0,WeatherCatV1.20B467,2013-05-20 03:39:00,
2013-05-20 04:44:00,51.8,49.8,29.83,WNW,289,1.0,2.0,93,0.00,,,0.01,0,WeatherCatV1.20B467,2013-05-20 03:44:00,
2013-05-20 04:49:00,51.9,49.9,29.83,WNW,300,2.0,3.0,93,0.00,,,0.01,0,WeatherCatV1.20B467,2013-05-20 03:49:00,
2013-05-20 04:54:00,51.9,49.9,29.82,NNW,331,2.0,3.0,93,0.00,,,0.01,0,WeatherCatV1.20B467,2013-05-20 03:54:00,
2013-05-20 04:59:00,51.9,49.9,29.82,NW,323,0.0,2.0,93,0.00,,,0.01,0,WeatherCatV1.20B467,2013-05-20 03:59:00,
2013-05-20 05:01:00,51.9,49.9,29.82,WNW,297,1.0,7.0,93,0.00,,,0.01,0,WeatherCatV1.20B467,2013-05-20 04:01:00,
2013-05-20 05:06:00,51.9,49.9,29.82,NNE,31,0.0,7.0,93,0.00,,,0.01,0,WeatherCatV1.20B467,2013-05-20 04:06:00,
2013-05-20 05:11:00,52.0,49.7,29.82,NNW,342,0.0,2.0,92,0.00,,,0.01,0,WeatherCatV1.20B467,2013-05-20 04:11:00,
2013-05-20 05:16:00,52.1,49.8,29.82,North,355,2.0,5.0,92,0.00,,,0.01,0,WeatherCatV1.20B467,2013-05-20 04:16:00,
2013-05-20 05:21:00,52.1,49.8,29.82,NNW,330,0.0,1.0,92,0.00,,,0.01,5,WeatherCatV1.20B467,2013-05-20 04:21:00,
2013-05-20 05:26:00,52.2,49.9,29.82,NW,322,0.0,1.0,92,0.00,,,0.01,7,WeatherCatV1.20B467,2013-05-20 04:26:00,
2013-05-20 05:31:00,52.2,49.9,29.83,SW,217,0.0,2.0,92,0.00,,,0.01,9,WeatherCatV1.20B467,2013-05-20 04:31:00,
2013-05-20 05:36:00,52.3,50.0,29.83,ESE,111,1.0,2.0,92,0.00,,,0.01,12,WeatherCatV1.20B467,2013-05-20 04:36:00,
2013-05-20 05:41:00,52.4,50.1,29.83,NNW,335,0.0,2.0,92,0.00,,,0.01,16,WeatherCatV1.20B467,2013-05-20 04:41:00,
2013-05-20 05:46:00,52.4,49.8,29.83,WNW,293,0.0,1.0,91,0.00,,,0.01,18,WeatherCatV1.20B467,2013-05-20 04:46:00,
2013-05-20 05:51:00,52.5,49.9,29.83,North,355,3.0,5.0,91,0.00,,,0.01,23,WeatherCatV1.20B467,2013-05-20 04:51:00,
2013-05-20 05:56:00,52.6,50.0,29.83,NW,315,0.0,5.0,91,0.00,,,0.01,19,WeatherCatV1.20B467,2013-05-20 04:56:00,
2013-05-20 06:01:00,52.7,50.1,29.83,North,355,0.0,3.0,91,0.00,,,0.01,21,WeatherCatV1.20B467,2013-05-20 05:01:00,
2013-05-20 06:06:00,52.7,50.1,29.82,NNW,345,0.0,2.0,91,0.00,,,0.01,28,WeatherCatV1.20B467,2013-05-20 05:06:00,
2013-05-20 06:11:00,52.8,50.2,29.83,NW,308,0.0,2.0,91,0.00,,,0.01,32,WeatherCatV1.20B467,2013-05-20 05:11:00,
2013-05-20 06:16:00,52.8,50.2,29.82,SSW,212,0.0,1.0,91,0.00,,,0.01,19,WeatherCatV1.20B467,2013-05-20 05:16:00,
2013-05-20 06:21:00,52.9,50.3,29.82,SSE,158,0.0,1.0,91,0.00,,,0.01,21,WeatherCatV1.20B467,2013-05-20 05:21:00,
2013-05-20 06:26:00,52.9,50.3,29.83,NW,311,0.0,2.0,91,0.00,,,0.01,19,WeatherCatV1.20B467,2013-05-20 05:26:00,
2013-05-20 06:31:00,52.9,50.6,29.83,WNW,296,1.0,1.0,92,0.00,,,0.01,23,WeatherCatV1.20B467,2013-05-20 05:31:00,
2013-05-20 06:36:00,53.0,50.7,29.83,ESE,114,0.0,2.0,92,0.00,,,0.01,23,WeatherCatV1.20B467,2013-05-20 05:36:00,
2013-05-20 06:41:00,53.0,50.7,29.83,NW,322,6.0,6.0,92,0.00,,,0.01,26,WeatherCatV1.20B467,2013-05-20 05:41:00,
2013-05-20 06:46:00,52.9,50.6,29.83,NNW,340,1.0,5.0,92,0.00,,,0.01,28,WeatherCatV1.20B467,2013-05-20 05:46:00,
2013-05-20 06:51:00,52.9,50.6,29.83,NNW,348,0.0,2.0,92,0.00,,,0.01,32,WeatherCatV1.20B467,2013-05-20 05:51:00,
2013-05-20 06:56:00,52.9,50.6,29.83,NW,308,0.0,2.0,92,0.00,,,0.01,23,WeatherCatV1.20B467,2013-05-20 05:56:00,
2013-05-20 07:01:00,52.9,50.6,29.83,WNW,302,0.0,4.0,92,0.00,,,0.01,32,WeatherCatV1.20B467,2013-05-20 06:01:00,
2013-05-20 07:06:00,52.9,50.9,29.83,NW,311,0.0,1.0,93,0.00,,,0.01,33,WeatherCatV1.20B467,2013-05-20 06:06:00,
2013-05-20 07:11:00,52.8,50.8,29.83,NNW,335,2.0,4.0,93,0.00,,,0.01,49,WeatherCatV1.20B467,2013-05-20 06:11:00,
2013-05-20 07:16:00,52.8,50.8,29.83,North,5,1.0,2.0,93,0.00,,,0.01,37,WeatherCatV1.20B467,2013-05-20 06:16:00,
2013-05-20 07:21:00,52.8,51.1,29.83,SSW,198,0.0,3.0,94,0.00,,,0.01,28,WeatherCatV1.20B467,2013-05-20 06:21:00,
2013-05-20 07:26:00,52.7,51.0,29.83,WNW,293,0.0,0.0,94,0.00,,,0.01,33,WeatherCatV1.20B467,2013-05-20 06:26:00,
2013-05-20 07:31:00,52.7,51.0,29.83,SE,130,0.0,2.0,94,0.00,,,0.01,46,WeatherCatV1.20B467,2013-05-20 06:31:00,
2013-05-20 07:36:00,52.8,51.1,29.83,NW,324,3.0,3.0,94,0.00,,,0.01,54,WeatherCatV1.20B467,2013-05-20 06:36:00,
2013-05-20 07:41:00,52.8,51.1,29.83,NW,325,0.0,1.0,94,0.00,,,0.01,63,WeatherCatV1.20B467,2013-05-20 06:41:00,
2013-05-20 07:46:00,52.9,51.2,29.83,SSE,163,2.0,2.0,94,0.00,,,0.01,76,WeatherCatV1.20B467,2013-05-20 06:46:00,
2013-05-20 07:51:00,53.0,51.6,29.83,NW,314,1.0,1.0,95,0.00,,,0.01,100,WeatherCatV1.20B467,2013-05-20 06:51:00,
2013-05-20 07:56:00,53.1,51.7,29.83,WNW,298,0.0,2.0,95,0.00,,,0.01,121,WeatherCatV1.20B467,2013-05-20 06:56:00,
2013-05-20 08:01:00,53.2,51.8,29.83,WNW,302,1.0,2.0,95,0.00,,,0.01,63,WeatherCatV1.20B467,2013-05-20 07:01:00,
2013-05-20 08:06:00,53.3,51.9,29.84,NNW,342,0.0,1.0,95,0.00,,,0.01,69,WeatherCatV1.20B467,2013-05-20 07:06:00,
2013-05-20 08:07:00,53.3,51.9,29.83,NNW,334,1.0,1.0,95,0.00,,,0.01,74,WeatherCatV1.20B467,2013-05-20 07:07:00,
2013-05-20 08:12:00,53.4,52.0,29.84,NNW,331,0.0,3.0,95,0.00,,,0.01,102,WeatherCatV1.20B467,2013-05-20 07:12:00,
2013-05-20 08:17:00,53.6,52.2,29.84,NW,310,0.0,4.0,95,0.00,,,0.01,79,WeatherCatV1.20B467,2013-05-20 07:17:00,
2013-05-20 08:22:00,53.7,52.3,29.84,NW,310,0.0,1.0,95,0.00,,,0.01,97,WeatherCatV1.20B467,2013-05-20 07:22:00,
2013-05-20 08:27:00,53.7,52.3,29.84,NNW,328,1.0,4.0,95,0.00,,,0.01,69,WeatherCatV1.20B467,2013-05-20 07:27:00,
2013-05-20 08:32:00,53.8,52.4,29.84,SSE,152,1.0,2.0,95,0.00,,,0.01,81,WeatherCatV1.20B467,2013-05-20 07:32:00,
2013-05-20 08:37:00,53.9,52.5,29.83,SSE,155,1.0,3.0,95,0.00,,,0.01,88,WeatherCatV1.20B467,2013-05-20 07:37:00,
2013-05-20 08:42:00,53.9,52.5,29.84,SE,133,4.0,4.0,95,0.00,,,0.01,107,WeatherCatV1.20B467,2013-05-20 07:42:00,
2013-05-20 08:47:00,54.0,52.6,29.83,South,177,3.0,3.0,95,0.00,,,0.01,102,WeatherCatV1.20B467,2013-05-20 07:47:00,
2013-05-20 08:52:00,54.0,52.3,29.84,West,273,0.0,2.0,94,0.00,,,0.01,79,WeatherCatV1.20B467,2013-05-20 07:52:00,
2013-05-20 08:57:00,54.1,52.4,29.84,NNW,348,0.0,1.0,94,0.00,,,0.01,74,WeatherCatV1.20B467,2013-05-20 07:57:00,
2013-05-20 09:02:00,54.3,52.6,29.84,North,355,2.0,4.0,94,0.00,,,0.01,137,WeatherCatV1.20B467,2013-05-20 08:02:00,
2013-05-20 09:06:00,54.4,52.7,29.84,NNW,331,1.0,1.0,94,0.00,,,0.01,98,WeatherCatV1.20B467,2013-05-20 08:06:00,
2013-05-20 09:11:00,54.5,52.5,29.83,NW,318,1.0,6.0,93,0.00,,,0.01,162,WeatherCatV1.20B467,2013-05-20 08:11:00,
2013-05-20 09:16:00,54.5,52.5,29.83,North,355,0.0,1.0,93,0.00,,,0.02,113,WeatherCatV1.20B467,2013-05-20 08:16:00,
2013-05-20 09:21:00,54.6,52.6,29.84,NNE,13,1.0,6.0,93,0.00,,,0.02,118,WeatherCatV1.20B467,2013-05-20 08:21:00,
2013-05-20 09:26:00,54.6,52.6,29.83,South,179,1.0,2.0,93,0.00,,,0.02,116,WeatherCatV1.20B467,2013-05-20 08:26:00,
2013-05-20 09:31:00,54.7,52.7,29.83,SE,129,0.0,2.0,93,0.00,,,0.02,127,WeatherCatV1.20B467,2013-05-20 08:31:00,
2013-05-20 09:36:00,54.8,52.8,29.83,NW,324,1.0,3.0,93,0.00,,,0.02,142,WeatherCatV1.20B467,2013-05-20 08:36:00,
2013-05-20 09:41:00,55.0,53.0,29.83,South,170,2.0,6.0,93,0.00,,,0.02,163,WeatherCatV1.20B467,2013-05-20 08:41:00,
2013-05-20 09:46:00,55.1,53.1,29.83,South,170,0.0,2.0,93,0.00,,,0.02,120,WeatherCatV1.20B467,2013-05-20 08:46:00,
2013-05-20 09:51:00,55.2,52.9,29.83,NW,305,2.0,3.0,92,0.00,,,0.02,176,WeatherCatV1.20B467,2013-05-20 08:51:00,
2013-05-20 09:56:00,55.3,53.0,29.83,SSE,149,3.0,4.0,92,0.00,,,0.02,179,WeatherCatV1.20B467,2013-05-20 08:56:00,
2013-05-20 10:01:00,55.5,53.2,29.84,NNW,327,1.0,5.0,92,0.00,,,0.02,155,WeatherCatV1.20B467,2013-05-20 09:01:00,
2013-05-20 10:06:00,55.6,53.3,29.84,ESE,106,0.0,5.0,92,0.00,,,0.02,139,WeatherCatV1.20B467,2013-05-20 09:06:00,
2013-05-20 10:11:00,55.8,53.5,29.84,West,265,7.0,7.0,92,0.00,,,0.02,130,WeatherCatV1.20B467,2013-05-20 09:11:00,
2013-05-20 10:16:00,55.7,53.4,29.84,South,183,0.0,1.0,92,0.00,,,0.02,120,WeatherCatV1.20B467,2013-05-20 09:16:00,
2013-05-20 10:21:00,55.7,53.4,29.84,NE,51,1.0,3.0,92,0.00,,,0.02,153,WeatherCatV1.20B467,2013-05-20 09:21:00,
2013-05-20 10:26:00,55.7,53.4,29.84,NNE,32,0.0,5.0,92,0.00,,,0.02,139,WeatherCatV1.20B467,2013-05-20 09:26:00,
2013-05-20 10:31:00,55.7,53.4,29.84,SW,214,0.0,6.0,92,0.00,,,0.02,114,WeatherCatV1.20B467,2013-05-20 09:31:00,
2013-05-20 10:36:00,55.7,53.4,29.84,WNW,298,0.0,3.0,92,0.00,,,0.02,142,WeatherCatV1.20B467,2013-05-20 09:36:00,
2013-05-20 10:41:00,55.7,53.4,29.84,NNE,13,3.0,6.0,92,0.00,,,0.02,151,WeatherCatV1.20B467,2013-05-20 09:41:00,
2013-05-20 10:46:00,55.7,53.4,29.84,NE,55,0.0,3.0,92,0.00,,,0.02,162,WeatherCatV1.20B467,2013-05-20 09:46:00,
2013-05-20 10:51:00,55.9,53.6,29.84,NW,314,3.0,3.0,92,0.00,,,0.02,153,WeatherCatV1.20B467,2013-05-20 09:51:00,
2013-05-20 10:56:00,56.0,53.7,29.84,East,88,1.0,1.0,92,0.00,,,0.02,142,WeatherCatV1.20B467,2013-05-20 09:56:00,
2013-05-20 11:01:00,56.0,53.7,29.84,West,262,1.0,4.0,92,0.00,,,0.02,155,WeatherCatV1.20B467,2013-05-20 10:01:00,
2013-05-20 11:06:00,56.0,53.7,29.84,NW,319,1.0,2.0,92,0.00,,,0.02,139,WeatherCatV1.20B467,2013-05-20 10:06:00,
2013-05-20 11:11:00,56.0,53.7,29.84,NW,317,0.0,1.0,92,0.00,,,0.02,134,WeatherCatV1.20B467,2013-05-20 10:11:00,
2013-05-20 11:16:00,56.0,53.7,29.84,WNW,295,3.0,3.0,92,0.00,,,0.02,148,WeatherCatV1.20B467,2013-05-20 10:16:00,
2013-05-20 11:21:00,56.1,53.8,29.84,NNE,13,0.0,4.0,92,0.00,,,0.02,162,WeatherCatV1.20B467,2013-05-20 10:21:00,
2013-05-20 11:26:00,56.3,54.0,29.84,SE,143,2.0,7.0,92,0.00,,,0.02,144,WeatherCatV1.20B467,2013-05-20 10:26:00,
2013-05-20 11:31:00,56.2,53.9,29.84,WNW,298,0.0,4.0,92,0.00,,,0.02,146,WeatherCatV1.20B467,2013-05-20 10:31:00,
2013-05-20 11:36:00,56.3,54.3,29.84,WSW,249,0.0,4.0,93,0.00,,,0.02,141,WeatherCatV1.20B467,2013-05-20 10:36:00,
2013-05-20 11:41:00,56.4,54.1,29.84,South,178,0.0,2.0,92,0.00,,,0.02,144,WeatherCatV1.20B467,2013-05-20 10:41:00,
2013-05-20 11:46:00,56.5,54.2,29.84,SSE,162,2.0,2.0,92,0.00,,,0.02,107,WeatherCatV1.20B467,2013-05-20 10:46:00,
2013-05-20 11:51:00,56.6,54.3,29.84,NW,313,1.0,1.0,92,0.00,,,0.02,109,WeatherCatV1.20B467,2013-05-20 10:51:00,
2013-05-20 11:56:00,56.6,54.3,29.84,SE,133,0.0,5.0,92,0.00,,,0.02,188,WeatherCatV1.20B467,2013-05-20 10:56:00,
2013-05-20 12:01:00,56.8,54.5,29.84,WNW,289,0.0,2.0,92,0.00,,,0.02,153,WeatherCatV1.20B467,2013-05-20 11:01:00,
2013-05-20 12:06:00,56.9,54.6,29.84,WNW,290,0.0,2.0,92,0.00,,,0.02,174,WeatherCatV1.20B467,2013-05-20 11:06:00,
2013-05-20 12:11:00,57.1,54.8,29.84,SSW,213,1.0,1.0,92,0.00,,,0.02,179,WeatherCatV1.20B467,2013-05-20 11:11:00,
2013-05-20 12:16:00,57.2,54.9,29.83,West,275,1.0,3.0,92,0.00,,,0.02,283,WeatherCatV1.20B467,2013-05-20 11:16:00,
2013-05-20 12:21:00,57.2,54.6,29.84,SSE,149,0.0,3.0,91,0.00,,,0.02,281,WeatherCatV1.20B467,2013-05-20 11:21:00,
2013-05-20 12:26:00,57.6,55.3,29.84,SW,233,2.0,2.0,92,0.00,,,0.02,257,WeatherCatV1.20B467,2013-05-20 11:26:00,
2013-05-20 12:31:00,57.7,55.1,29.84,NW,311,1.0,6.0,91,0.00,,,0.02,397,WeatherCatV1.20B467,2013-05-20 11:31:00,
2013-05-20 12:36:00,58.0,55.4,29.84,NW,306,1.0,3.0,91,0.00,,,0.02,362,WeatherCatV1.20B467,2013-05-20 11:36:00,
2013-05-20 12:41:00,58.2,55.3,29.84,SSE,167,0.0,2.0,90,0.00,,,0.02,469,WeatherCatV1.20B467,2013-05-20 11:41:00,
2013-05-20 12:46:00,58.6,55.4,29.84,South,188,0.0,3.0,89,0.00,,,0.02,443,WeatherCatV1.20B467,2013-05-20 11:46:00,
2013-05-20 12:51:00,59.3,56.1,29.84,West,277,1.0,1.0,89,0.00,,,0.02,299,WeatherCatV1.20B467,2013-05-20 11:51:00,
2013-05-20 12:56:00,59.5,55.6,29.84,NNW,336,0.0,1.0,87,0.00,,,0.02,250,WeatherCatV1.20B467,2013-05-20 11:56:00,
2013-05-20 13:01:00,59.3,55.7,29.84,South,178,0.0,2.0,88,0.00,,,0.02,271,WeatherCatV1.20B467,2013-05-20 12:01:00,
2013-05-20 13:06:00,59.1,55.5,29.84,NNW,327,1.0,1.0,88,0.00,,,0.02,169,WeatherCatV1.20B467,2013-05-20 12:06:00,
2013-05-20 13:11:00,58.8,55.3,29.85,NW,321,5.0,5.0,88,0.00,,,0.02,134,WeatherCatV1.20B467,2013-05-20 12:11:00,
2013-05-20 13:16:00,58.5,55.0,29.85,SSE,158,2.0,4.0,88,0.00,,,0.02,137,WeatherCatV1.20B467,2013-05-20 12:16:00,
2013-05-20 13:21:00,58.3,55.1,29.85,SE,135,0.0,1.0,89,0.00,,,0.02,169,WeatherCatV1.20B467,2013-05-20 12:21:00,
2013-05-20 13:26:00,58.2,55.0,29.85,SE,134,0.0,2.0,89,0.00,,,0.02,188,WeatherCatV1.20B467,2013-05-20 12:26:00,
2013-05-20 13:31:00,58.3,55.4,29.85,NNW,330,0.0,2.0,90,0.00,,,0.02,213,WeatherCatV1.20B467,2013-05-20 12:31:00,
2013-05-20 13:36:00,58.5,55.6,29.84,WNW,302,0.0,3.0,90,0.00,,,0.02,269,WeatherCatV1.20B467,2013-05-20 12:36:00,
2013-05-20 13:41:00,58.8,55.6,29.85,NW,313,0.0,2.0,89,0.00,,,0.02,269,WeatherCatV1.20B467,2013-05-20 12:41:00,
2013-05-20 13:46:00,59.0,55.4,29.85,SE,139,0.0,2.0,88,0.00,,,0.02,290,WeatherCatV1.20B467,2013-05-20 12:46:00,
2013-05-20 13:51:00,59.3,55.7,29.85,NW,306,0.0,4.0,88,0.00,,,0.02,434,WeatherCatV1.20B467,2013-05-20 12:51:00,
2013-05-20 13:56:00,59.7,56.1,29.85,South,183,0.0,2.0,88,0.00,,,0.02,438,WeatherCatV1.20B467,2013-05-20 12:56:00,
2013-05-20 14:01:00,60.1,56.5,29.85,WNW,285,4.0,7.0,88,0.00,,,0.02,371,WeatherCatV1.20B467,2013-05-20 13:01:00,
2013-05-20 14:06:00,60.7,56.8,29.85,West,271,1.0,1.0,87,0.00,,,0.02,371,WeatherCatV1.20B467,2013-05-20 13:06:00,
2013-05-20 14:11:00,61.2,56.7,29.84,NW,315,3.0,3.0,85,0.00,,,0.02,352,WeatherCatV1.20B467,2013-05-20 13:11:00,
2013-05-20 14:16:00,61.2,56.3,29.85,SW,219,1.0,3.0,84,0.00,,,0.02,251,WeatherCatV1.20B467,2013-05-20 13:16:00,
2013-05-20 14:21:00,61.1,56.6,29.85,ENE,64,1.0,4.0,85,0.00,,,0.02,250,WeatherCatV1.20B467,2013-05-20 13:21:00,
2013-05-20 14:26:00,60.9,56.4,29.85,ESE,121,1.0,1.0,85,0.00,,,0.02,181,WeatherCatV1.20B467,2013-05-20 13:26:00,
2013-05-20 14:31:00,60.9,56.7,29.85,NNW,335,0.0,1.0,86,0.00,,,0.02,230,WeatherCatV1.20B467,2013-05-20 13:31:00,
2013-05-20 14:36:00,61.0,56.8,29.85,NW,319,2.0,2.0,86,0.00,,,0.02,482,WeatherCatV1.20B467,2013-05-20 13:36:00,
2013-05-20 14:41:00,61.8,57.2,29.85,SW,220,1.0,2.0,85,0.00,,,0.02,313,WeatherCatV1.20B467,2013-05-20 13:41:00,
2013-05-20 14:46:00,61.8,56.9,29.86,SSE,148,2.0,2.0,84,0.00,,,0.02,220,WeatherCatV1.20B467,2013-05-20 13:46:00,
2013-05-20 14:51:00,61.5,56.6,29.86,NW,317,0.0,3.0,84,0.00,,,0.02,141,WeatherCatV1.20B467,2013-05-20 13:51:00,
2013-05-20 14:56:00,61.3,56.4,29.86,North,355,0.0,2.0,84,0.00,,,0.02,183,WeatherCatV1.20B467,2013-05-20 13:56:00,
2013-05-20 15:01:00,61.4,56.5,29.85,NW,312,0.0,3.0,84,0.00,,,0.02,158,WeatherCatV1.20B467,2013-05-20 14:01:00,
2013-05-20 15:06:00,61.4,56.5,29.86,WNW,298,2.0,7.0,84,0.00,,,0.02,165,WeatherCatV1.20B467,2013-05-20 14:06:00,
2013-05-20 15:11:00,61.3,56.7,29.86,NNE,15,0.0,0.0,85,0.00,,,0.02,123,WeatherCatV1.20B467,2013-05-20 14:11:00,
2013-05-20 15:16:00,61.3,56.7,29.86,NE,38,0.0,1.0,85,0.00,,,0.02,93,WeatherCatV1.20B467,2013-05-20 14:16:00,
2013-05-20 15:21:00,61.3,56.7,29.86,NW,317,0.0,1.0,85,0.00,,,0.02,109,WeatherCatV1.20B467,2013-05-20 14:21:00,
2013-05-20 15:26:00,61.3,56.7,29.86,NNE,23,0.0,0.0,85,0.00,,,0.02,176,WeatherCatV1.20B467,2013-05-20 14:26:00,
2013-05-20 15:31:00,61.5,56.9,29.86,WNW,293,0.0,2.0,85,0.00,,,0.02,229,WeatherCatV1.20B467,2013-05-20 14:31:00,
2013-05-20 15:36:00,61.6,57.0,29.86,SSE,166,0.0,0.0,85,0.00,,,0.02,230,WeatherCatV1.20B467,2013-05-20 14:36:00,
2013-05-20 15:41:00,61.7,57.1,29.86,NW,315,0.0,1.0,85,0.00,,,0.02,178,WeatherCatV1.20B467,2013-05-20 14:41:00,
2013-05-20 15:46:00,61.8,57.2,29.86,ESE,117,0.0,4.0,85,0.00,,,0.02,257,WeatherCatV1.20B467,2013-05-20 14:46:00,
2013-05-20 15:51:00,62.0,57.4,29.85,East,92,0.0,1.0,85,0.00,,,0.02,216,WeatherCatV1.20B467,2013-05-20 14:51:00,
2013-05-20 15:56:00,62.2,57.3,29.86,NNE,15,0.0,2.0,84,0.00,,,0.02,127,WeatherCatV1.20B467,2013-05-20 14:56:00,
2013-05-20 16:01:00,62.2,57.3,29.86,SW,223,0.0,0.0,84,0.00,,,0.02,181,WeatherCatV1.20B467,2013-05-20 15:01:00,
2013-05-20 16:06:00,62.3,57.4,29.86,NW,311,0.0,1.0,84,0.00,,,0.02,169,WeatherCatV1.20B467,2013-05-20 15:06:00,
2013-05-20 16:11:00,62.4,57.5,29.86,NW,307,0.0,1.0,84,0.00,,,0.02,151,WeatherCatV1.20B467,2013-05-20 15:11:00,
2013-05-20 16:16:00,62.3,57.4,29.86,NW,309,0.0,1.0,84,0.00,,,0.02,167,WeatherCatV1.20B467,2013-05-20 15:16:00,
2013-05-20 16:21:00,62.3,57.4,29.86,South,175,0.0,1.0,84,0.00,,,0.02,144,WeatherCatV1.20B467,2013-05-20 15:21:00,
2013-05-20 16:26:00,62.4,57.5,29.86,East,96,0.0,1.0,84,0.00,,,0.02,114,WeatherCatV1.20B467,2013-05-20 15:26:00,
2013-05-20 16:31:00,62.3,57.4,29.86,WSW,244,0.0,1.0,84,0.00,,,0.02,83,WeatherCatV1.20B467,2013-05-20 15:31:00,
2013-05-20 16:36:00,62.2,57.3,29.86,SSE,161,0.0,3.0,84,0.00,,,0.02,155,WeatherCatV1.20B467,2013-05-20 15:36:00,
2013-05-20 16:41:00,62.1,57.2,29.86,SSE,163,2.0,2.0,84,0.00,,,0.02,95,WeatherCatV1.20B467,2013-05-20 15:41:00,
2013-05-20 16:46:00,62.0,57.1,29.86,ENE,72,0.0,2.0,84,0.00,,,0.02,88,WeatherCatV1.20B467,2013-05-20 15:46:00,
2013-05-20 16:51:00,62.1,57.2,29.86,SW,221,0.0,2.0,84,0.00,,,0.02,83,WeatherCatV1.20B467,2013-05-20 15:51:00,
2013-05-20 16:56:00,62.0,57.4,29.86,WNW,290,1.0,1.0,85,0.00,,,0.02,67,WeatherCatV1.20B467,2013-05-20 15:56:00,
2013-05-20 17:01:00,62.0,57.4,29.86,WNW,294,0.0,1.0,85,0.00,,,0.02,98,WeatherCatV1.20B467,2013-05-20 16:01:00,
2013-05-20 17:06:00,62.0,57.4,29.86,NNW,331,1.0,1.0,85,0.00,,,0.02,123,WeatherCatV1.20B467,2013-05-20 16:06:00,
2013-05-20 17:11:00,62.0,57.4,29.86,SSE,165,0.0,2.0,85,0.00,,,0.02,151,WeatherCatV1.20B467,2013-05-20 16:11:00,
2013-05-20 17:16:00,62.1,57.5,29.86,SSE,159,0.0,1.0,85,0.00,,,0.02,130,WeatherCatV1.20B467,2013-05-20 16:16:00,
2013-05-20 17:21:00,62.2,57.6,29.86,WSW,254,0.0,2.0,85,0.00,,,0.02,128,WeatherCatV1.20B467,2013-05-20 16:21:00,
2013-05-20 17:26:00,62.4,57.8,29.86,WSW,252,0.0,0.0,85,0.00,,,0.02,128,WeatherCatV1.20B467,2013-05-20 16:26:00,
2013-05-20 17:31:00,62.4,57.8,29.86,South,188,2.0,2.0,85,0.00,,,0.02,102,WeatherCatV1.20B467,2013-05-20 16:31:00,
2013-05-20 17:36:00,62.2,57.6,29.86,NW,310,0.0,0.0,85,0.00,,,0.02,76,WeatherCatV1.20B467,2013-05-20 16:36:00,
2013-05-20 17:41:00,62.2,57.6,29.86,East,96,0.0,1.0,85,0.00,,,0.02,90,WeatherCatV1.20B467,2013-05-20 16:41:00,
2013-05-20 17:46:00,62.2,57.6,29.86,East,96,0.0,1.0,85,0.00,,,0.02,144,WeatherCatV1.20B467,2013-05-20 16:46:00,
2013-05-20 17:51:00,62.3,57.7,29.86,West,267,1.0,2.0,85,0.00,,,0.02,146,WeatherCatV1.20B467,2013-05-20 16:51:00,
2013-05-20 17:56:00,62.3,57.7,29.86,NW,309,0.0,3.0,85,0.00,,,0.02,128,WeatherCatV1.20B467,2013-05-20 16:56:00,
2013-05-20 18:01:00,62.3,57.7,29.86,NW,313,0.0,1.0,85,0.00,,,0.02,144,WeatherCatV1.20B467,2013-05-20 17:01:00,
2013-05-20 18:06:00,62.3,57.7,29.86,NW,317,0.0,2.0,85,0.00,,,0.02,118,WeatherCatV1.20B467,2013-05-20 17:06:00,
2013-05-20 18:11:00,62.5,58.2,29.86,SSW,209,0.0,2.0,86,0.00,,,0.02,102,WeatherCatV1.20B467,2013-05-20 17:11:00,
2013-05-20 18:16:00,62.5,57.9,29.86,NW,323,0.0,4.0,85,0.00,,,0.02,107,WeatherCatV1.20B467,2013-05-20 17:16:00,
2013-05-20 18:21:00,62.4,57.8,29.87,NW,319,1.0,6.0,85,0.00,,,0.02,90,WeatherCatV1.20B467,2013-05-20 17:21:00,
2013-05-20 18:26:00,62.2,57.6,29.87,NW,309,0.0,3.0,85,0.00,,,0.02,58,WeatherCatV1.20B467,2013-05-20 17:26:00,
2013-05-20 18:31:00,62.0,57.4,29.87,South,175,0.0,4.0,85,0.00,,,0.02,69,WeatherCatV1.20B467,2013-05-20 17:31:00,
2013-05-20 18:36:00,62.0,57.8,29.87,SE,144,0.0,1.0,86,0.00,,,0.02,114,WeatherCatV1.20B467,2013-05-20 17:36:00,
2013-05-20 18:41:00,62.0,57.8,29.87,West,274,0.0,2.0,86,0.00,,,0.02,88,WeatherCatV1.20B467,2013-05-20 17:41:00,
2013-05-20 18:46:00,62.0,57.8,29.87,West,276,0.0,1.0,86,0.00,,,0.02,79,WeatherCatV1.20B467,2013-05-20 17:46:00,
2013-05-20 18:51:00,62.0,57.4,29.87,SSW,206,0.0,1.0,85,0.00,,,0.02,44,WeatherCatV1.20B467,2013-05-20 17:51:00,
2013-05-20 18:56:00,61.9,57.7,29.87,NW,316,1.0,1.0,86,0.00,,,0.02,21,WeatherCatV1.20B467,2013-05-20 17:56:00,
2013-05-20 19:01:00,61.8,57.6,29.87,SSW,198,0.0,1.0,86,0.00,,,0.02,28,WeatherCatV1.20B467,2013-05-20 18:01:00,
2013-05-20 19:06:00,61.8,57.6,29.87,SSE,165,0.0,3.0,86,0.00,,,0.02,33,WeatherCatV1.20B467,2013-05-20 18:06:00,
2013-05-20 19:11:00,61.8,57.6,29.87,NW,308,0.0,2.0,86,0.00,,,0.02,63,WeatherCatV1.20B467,2013-05-20 18:11:00,
2013-05-20 19:16:00,61.8,57.6,29.87,NW,308,1.0,1.0,86,0.00,,,0.02,33,WeatherCatV1.20B467,2013-05-20 18:16:00,
2013-05-20 19:21:00,61.8,57.6,29.87,NNW,327,0.0,1.0,86,0.00,,,0.02,16,WeatherCatV1.20B467,2013-05-20 18:21:00,
2013-05-20 19:22:00,61.8,57.6,29.87,NNW,327,0.0,0.0,86,0.00,,,0.02,14,WeatherCatV1.20B467,2013-05-20 18:22:00,
2013-05-20 19:27:00,61.7,57.5,29.87,NNW,328,0.0,2.0,86,0.00,,,0.02,37,WeatherCatV1.20B467,2013-05-20 18:27:00,
2013-05-20 19:32:00,61.7,57.5,29.87,NNW,330,0.0,0.0,86,0.00,,,0.02,46,WeatherCatV1.20B467,2013-05-20 18:32:00,
2013-05-20 19:37:00,61.7,57.8,29.87,NNW,330,0.0,1.0,87,0.00,,,0.02,23,WeatherCatV1.20B467,2013-05-20 18:37:00,
2013-05-20 19:42:00,61.7,57.8,29.87,NNW,330,0.0,0.0,87,0.00,,,0.02,21,WeatherCatV1.20B467,2013-05-20 18:42:00,
2013-05-20 19:47:00,61.7,57.8,29.87,NW,323,0.0,2.0,87,0.00,,,0.02,21,WeatherCatV1.20B467,2013-05-20 18:47:00,
2013-05-20 19:52:00,61.6,57.7,29.87,NW,325,1.0,1.0,87,0.00,,,0.02,19,WeatherCatV1.20B467,2013-05-20 18:52:00,
2013-05-20 19:57:00,61.6,57.7,29.87,North,5,0.0,1.0,87,0.00,,,0.02,12,WeatherCatV1.20B467,2013-05-20 18:57:00,
2013-05-20 20:02:00,61.6,57.7,29.87,NW,321,1.0,1.0,87,0.00,,,0.02,14,WeatherCatV1.20B467,2013-05-20 19:02:00,
2013-05-20 20:06:00,61.6,57.7,29.87,NNE,23,0.0,1.0,87,0.00,,,0.02,11,WeatherCatV1.20B467,2013-05-20 19:06:00,
2013-05-20 20:11:00,61.7,57.8,29.87,NNE,13,0.0,1.0,87,0.00,,,0.02,9,WeatherCatV1.20B467,2013-05-20 19:11:00,
2013-05-20 20:16:00,61.6,57.7,29.88,ENE,69,0.0,1.0,87,0.00,,,0.02,7,WeatherCatV1.20B467,2013-05-20 19:16:00,
2013-05-20 20:21:00,61.6,57.7,29.88,NE,35,0.0,1.0,87,0.00,,,0.02,0,WeatherCatV1.20B467,2013-05-20 19:21:00,
2013-05-20 20:26:00,61.6,57.7,29.88,SE,138,1.0,1.0,87,0.00,,,0.02,0,WeatherCatV1.20B467,2013-05-20 19:26:00,
2013-05-20 20:31:00,61.6,57.7,29.88,NW,325,0.0,1.0,87,0.00,,,0.02,0,WeatherCatV1.20B467,2013-05-20 19:31:00,
2013-05-20 20:36:00,61.6,57.7,29.88,NNW,346,3.0,3.0,87,0.00,,,0.02,0,WeatherCatV1.20B467,2013-05-20 19:36:00,
2013-05-20 20:41:00,61.5,57.6,29.88,NW,313,1.0,2.0,87,0.00,,,0.02,0,WeatherCatV1.20B467,2013-05-20 19:41:00,
2013-05-20 20:46:00,61.6,57.7,29.88,WNW,301,0.0,1.0,87,0.00,,,0.02,0,WeatherCatV1.20B467,2013-05-20 19:46:00,
2013-05-20 20:51:00,61.6,57.7,29.88,NNW,329,0.0,1.0,87,0.00,,,0.02,0,WeatherCatV1.20B467,2013-05-20 19:51:00,
2013-05-20 20:56:00,61.6,57.7,29.88,NNW,343,2.0,2.0,87,0.00,,,0.02,0,WeatherCatV1.20B467,2013-05-20 19:56:00,
2013-05-20 21:01:00,61.6,57.7,29.88,North,11,0.0,1.0,87,0.00,,,0.02,0,WeatherCatV1.20B467,2013-05-20 20:01:00,
2013-05-20 21:06:00,61.5,57.9,29.88,NW,309,1.0,2.0,88,0.00,,,0.02,0,WeatherCatV1.20B467,2013-05-20 20:06:00,
2013-05-20 21:11:00,61.4,57.8,29.88,NNW,334,0.0,1.0,88,0.00,,,0.02,0,WeatherCatV1.20B467,2013-05-20 20:11:00,
2013-05-20 21:16:00,61.4,57.8,29.89,North,0,0.0,2.0,88,0.00,,,0.02,0,WeatherCatV1.20B467,2013-05-20 20:16:00,
2013-05-20 21:21:00,61.4,57.8,29.89,NNW,328,0.0,7.0,88,0.00,,,0.02,0,WeatherCatV1.20B467,2013-05-20 20:21:00,
2013-05-20 21:26:00,61.4,57.8,29.89,NW,319,0.0,2.0,88,0.00,,,0.02,0,WeatherCatV1.20B467,2013-05-20 20:26:00,
2013-05-20 21:31:00,61.4,57.8,29.89,SE,146,1.0,2.0,88,0.00,,,0.02,0,WeatherCatV1.20B467,2013-05-20 20:31:00,
2013-05-20 21:36:00,61.3,57.7,29.89,North,5,2.0,2.0,88,0.00,,,0.02,0,WeatherCatV1.20B467,2013-05-20 20:36:00,
2013-05-20 21:41:00,61.3,57.7,29.89,NNW,336,1.0,2.0,88,0.00,,,0.02,0,WeatherCatV1.20B467,2013-05-20 20:41:00,
2013-05-20 21:46:00,61.3,57.7,29.89,WNW,295,0.0,4.0,88,0.00,,,0.02,0,WeatherCatV1.20B467,2013-05-20 20:46:00,
2013-05-20 21:51:00,61.3,57.4,29.89,SSW,201,0.0,3.0,87,0.00,,,0.02,0,WeatherCatV1.20B467,2013-05-20 20:51:00,
2013-05-20 21:56:00,61.3,57.4,29.89,ESE,117,1.0,4.0,87,0.00,,,0.02,0,WeatherCatV1.20B467,2013-05-20 20:56:00,
2013-05-20 22:01:00,61.2,57.3,29.89,South,180,1.0,8.0,87,0.00,,,0.02,0,WeatherCatV1.20B467,2013-05-20 21:01:00,
2013-05-20 22:06:00,61.2,57.3,29.89,SE,136,0.0,2.0,87,0.00,,,0.02,0,WeatherCatV1.20B467,2013-05-20 21:06:00,
2013-05-20 22:11:00,61.1,57.2,29.89,NW,315,1.0,1.0,87,0.00,,,0.02,0,WeatherCatV1.20B467,2013-05-20 21:11:00,
2013-05-20 22:16:00,61.1,56.9,29.89,West,259,0.0,4.0,86,0.00,,,0.02,0,WeatherCatV1.20B467,2013-05-20 21:16:00,
2013-05-20 22:21:00,61.1,56.9,29.89,SSE,161,0.0,0.0,86,0.00,,,0.02,0,WeatherCatV1.20B467,2013-05-20 21:21:00,
2013-05-20 22:26:00,61.1,56.6,29.89,NNW,338,0.0,1.0,85,0.00,,,0.02,0,WeatherCatV1.20B467,2013-05-20 21:26:00,
2013-05-20 22:31:00,61.0,56.5,29.89,NW,322,1.0,2.0,85,0.00,,,0.02,0,WeatherCatV1.20B467,2013-05-20 21:31:00,
2013-05-20 22:36:00,61.0,56.5,29.89,NW,325,0.0,0.0,85,0.00,,,0.02,0,WeatherCatV1.20B467,2013-05-20 21:36:00,
2013-05-20 22:41:00,60.9,56.4,29.89,NW,325,0.0,2.0,85,0.00,,,0.02,0,WeatherCatV1.20B467,2013-05-20 21:41:00,
2013-05-20 22:46:00,60.8,56.3,29.89,WNW,294,0.0,1.0,85,0.00,,,0.02,0,WeatherCatV1.20B467,2013-05-20 21:46:00,
2013-05-20 22:51:00,60.8,56.3,29.89,WNW,294,1.0,1.0,85,0.00,,,0.02,0,WeatherCatV1.20B467,2013-05-20 21:51:00,
2013-05-20 22:56:00,60.8,56.3,29.89,NE,34,0.0,0.0,85,0.00,,,0.02,0,WeatherCatV1.20B467,2013-05-20 21:56:00,
2013-05-20 23:01:00,60.7,56.2,29.89,NNE,12,0.0,0.0,85,0.00,,,0.02,0,WeatherCatV1.20B467,2013-05-20 22:01:00,
2013-05-20 23:06:00,60.7,56.5,29.89,NNE,17,1.0,1.0,86,0.00,,,0.02,0,WeatherCatV1.20B467,2013-05-20 22:06:00,
2013-05-20 23:11:00,60.7,56.5,29.89,NW,307,0.0,1.0,86,0.00,,,0.02,0,WeatherCatV1.20B467,2013-05-20 22:11:00,
2013-05-20 23:16:00,60.6,56.4,29.89,North,350,0.0,1.0,86,0.00,,,0.02,0,WeatherCatV1.20B467,2013-05-20 22:16:00,
2013-05-20 23:21:00,60.6,56.4,29.89,NW,311,0.0,2.0,86,0.00,,,0.02,0,WeatherCatV1.20B467,2013-05-20 22:21:00,
2013-05-20 23:26:00,60.5,56.3,29.89,ESE,110,2.0,6.0,86,0.00,,,0.02,0,WeatherCatV1.20B467,2013-05-20 22:26:00,
2013-05-20 23:31:00,60.5,56.3,29.89,NW,307,3.0,3.0,86,0.00,,,0.02,0,WeatherCatV1.20B467,2013-05-20 22:31:00,
2013-05-20 23:36:00,60.5,56.3,29.89,NNW,346,0.0,1.0,86,0.00,,,0.02,0,WeatherCatV1.20B467,2013-05-20 22:36:00,
2013-05-20 23:41:00,60.5,56.3,29.89,NW,313,0.0,2.0,86,0.00,,,0.02,0,WeatherCatV1.20B467,2013-05-20 22:41:00,
2013-05-20 23:46:00,60.4,56.5,29.89,WNW,300,0.0,2.0,87,0.00,,,0.02,0,WeatherCatV1.20B467,2013-05-20 22:46:00,
2013-05-20 23:51:00,60.4,56.2,29.89,NNW,327,2.0,4.0,86,0.00,,,0.02,0,WeatherCatV1.20B467,2013-05-20 22:51:00,
2013-05-20 23:56:00,60.3,56.4,29.89,North,355,0.0,1.0,87,0.00,,,0.02,0,WeatherCatV1.20B467,2013-05-20 22:56:00,